| time (UTC) | temp F | wind direction | speed knots | gust knots | rain 1hr in | rain 24hr in | rain mn in | humidity % | barometer mb |
| 20260905231818 | 59 | 280 | 4.3 | 0.0 | 0.00 | 0.00 | 0.00 | 58 | |
| 20260905222238 | 61 | 290 | 4.3 | 0.0 | 0.00 | 0.00 | 0.00 | 55 | |
| 20260905211833 | 63 | 290 | 4.3 | 0.0 | 0.00 | 0.00 | 0.00 | 51 | |
| 20260905201834 | 63 | 280 | 4.3 | 0.0 | 0.00 | 0.00 | 0.00 | 51 | |
| 20260905192152 | 64 | 290 | 6.1 | 0.0 | 0.00 | 0.00 | 0.00 | 48 | |
| 20260905181852 | 66 | 310 | 6.1 | 0.0 | 0.00 | 0.00 | 0.00 | 45 | |
| 20260905171851 | 70 | 310 | 7.8 | 0.0 | 0.00 | 0.00 | 0.00 | 40 | |
| 20260905162327 | 72 | 300 | 10.4 | 0.0 | 0.00 | 0.00 | 0.00 | 37 | |
| 20260905151744 | 72 | 300 | 7.8 | 0.0 | 0.00 | 0.00 | 0.00 | 40 | |
| 20260905141744 | 73 | 300 | 10.4 | 0.0 | 0.00 | 0.00 | 0.00 | 38 | |
| 20260905132038 | 72 | 270 | 6.1 | 0.0 | 0.00 | 0.00 | 0.00 | 43 | |
| 20260905121946 | 72 | 270 | 7.8 | 0.0 | 0.00 | 0.00 | 0.00 | 43 | |
| 20260905111920 | 72 | 270 | 6.1 | 0.0 | 0.00 | 0.00 | 0.00 | 49 | |
| 20260905102256 | 68 | 260 | 6.1 | 0.0 | 0.00 | 0.00 | 0.00 | 52 | |
| 20260905091845 | 64 | 250 | 6.1 | 0.0 | 0.00 | 0.00 | 0.00 | 63 | |
| 20260905081839 | 63 | 260 | 4.3 | 0.0 | 0.00 | 0.00 | 0.00 | 72 | |
| 20260905072140 | 61 | 0 | 4.3 | 0.0 | 0.00 | 0.00 | 0.00 | 77 | |
| 20260905061840 | 59 | 220 | 4.3 | 0.0 | 0.00 | 0.00 | 0.00 | 87 | |
| 20260905051838 | 57 | 0 | 1.7 | 0.0 | 0.00 | 0.00 | 0.00 | 87 | |
| 20260905042241 | 57 | 210 | 4.3 | 0.0 | 0.00 | 0.00 | 0.00 | 87 | |
| 20260905031840 | 61 | 260 | 6.1 | 0.0 | 0.00 | 0.00 | 0.00 | 72 | |
| 20260905021840 | 61 | 290 | 4.3 | 0.0 | 0.00 | 0.00 | 0.00 | 72 | |
| 20260905012140 | 64 | 290 | 6.1 | 0.0 | 0.00 | 0.00 | 0.00 | 63 | |
| 20260905001853 | 66 | 300 | 6.1 | 0.0 | 0.00 | 0.00 | 0.00 | 59 |